Weather History for Tallahassee, FL

Change the Weather History Date:

Sunday, March 24, 2013

  Actual Average Record
Temperature  
Mean Temperature 73 °F 62 °F  
Max Temperature 86 °F 75 °F 90 °F (1935)
Min Temperature 60 °F 48 °F 30 °F (1968)
Degree Days  
Heating Degree Days 0    
Month to date heating degree days 229  
Since 1 July heating degree days 1207  
Cooling Degree Days 8    
Month to date cooling degree days 17  
Year to date cooling degree days 67  
Growing Degree Days 24 (Base 50)    
Moisture  
Dew Point 63 °F    
Average Humidity 62    
Maximum Humidity 93    
Minimum Humidity 30    
Precipitation  
Precipitation 0.83 in 0.16 in 2.67 in (1957)
Month to date precipitation 4.30 4.77  
Year to date precipitation 17.51 13.96  
Sea Level Pressure  
Sea Level Pressure 29.61 in    
Wind  
Wind Speed 14 mph (SW)    
Max Wind Speed 25 mph    
Max Gust Speed 35 mph    
Visibility 7 miles    
Events Fog , Rain , Thunderstorm    
T = Trace of Precipitation, MM = Missing Value Source: NWS Daily Summary

Daily Weather History Graph

Daily Weather History Graph

Search for Another Location

Airport:

Trip Planner

Search our weather history database for the weather conditions in past years. The results will help you decide how hot, cold, wet, or windy it might be!

Date:

Astronomy

Mar. 24, 2013 Rise Set
Actual Time 7:36 AM EDT 7:51 PM EDT
Civil Twilight 7:12 AM EDT 8:15 PM EDT
Nautical Twilight 6:43 AM EDT 8:43 PM EDT
Astronomical Twilight 6:15 AM EDT 9:12 PM EDT
Moon 5:27 PM EDT (3/24) 5:35 AM EDT (3/24)
Length of Visible Light 13h 03m
Length of Day
12h 15m
Waxing Gibbous, 91% of the Moon is Illuminated
Mar 24
Waxing Gibbous
Mar 27
Full
Apr 3
Last Quarter
Apr 10
New
Apr 18
First Quarter

Hourly Weather History & Observations

Time (EDT) Temp. Heat Index Dew Point Humidity Pressure Visibility Wind Dir Wind Speed Gust Speed Precip Events Conditions
12:34 AM 62.6 °F - 60.8 °F 94% 29.72 in 2.5 mi SE 3.5 mph - 0.00 in Rain Light Rain
12:53 AM 64.0 °F - 62.1 °F 93% 29.70 in 1.5 mi ESE 6.9 mph - 0.00 in   Overcast
1:53 AM 66.9 °F - 64.9 °F 93% 29.67 in 1.0 mi South 11.5 mph - 0.01 in   Mist
2:53 AM 68.0 °F - 66.0 °F 93% 29.66 in 1.2 mi SSE 4.6 mph - N/A   Overcast
3:33 AM 69.8 °F - 66.2 °F 88% 29.65 in 2.0 mi South 5.8 mph - N/A   Overcast
3:53 AM 69.1 °F - 66.9 °F 93% 29.64 in 2.0 mi South 10.4 mph - N/A   Overcast
4:27 AM 69.8 °F - 66.2 °F 88% 29.63 in 3.0 mi SSE 8.1 mph - N/A   Overcast
4:53 AM 69.1 °F - 66.9 °F 93% 29.62 in 3.0 mi South 10.4 mph 19.6 mph N/A   Overcast
5:13 AM 69.8 °F - 66.2 °F 88% 29.60 in 2.5 mi South 10.4 mph - N/A   Overcast
5:24 AM 69.8 °F - 66.2 °F 88% 29.59 in 4.0 mi South 10.4 mph - N/A   Overcast
5:53 AM 70.0 °F - 66.9 °F 90% 29.55 in 5.0 mi South 10.4 mph 18.4 mph 0.01 in   Overcast
6:53 AM 71.1 °F - 69.1 °F 93% 29.52 in 7.0 mi South 12.7 mph - 0.00 in Rain Light Rain
7:05 AM 71.6 °F - 69.8 °F 94% 29.53 in 7.0 mi South 13.8 mph 23.0 mph 0.00 in Rain , Thunderstorm Light Thunderstorms and Rain
7:14 AM 71.6 °F - 69.8 °F 94% 29.53 in 7.0 mi South 12.7 mph 21.9 mph 0.00 in Rain , Thunderstorm Light Thunderstorms and Rain
7:38 AM 71.6 °F - 69.8 °F 94% 29.58 in 0.2 mi WSW 12.7 mph 21.9 mph 0.11 in Fog , Rain , Thunderstorm Heavy Thunderstorms and Rain
7:53 AM 72.0 °F - 66.0 °F 81% 29.57 in 0.2 mi WSW 24.2 mph 34.5 mph 0.62 in Rain , Thunderstorm Heavy Thunderstorms and Rain
8:09 AM 69.8 °F - 64.4 °F 83% 29.59 in 5.0 mi SW 19.6 mph 25.3 mph 0.13 in Rain , Thunderstorm Heavy Thunderstorms and Rain
8:33 AM 69.8 °F - 66.2 °F 88% 29.58 in 10.0 mi SSW 13.8 mph 24.2 mph 0.19 in Rain Light Rain
8:53 AM 70.0 °F - 66.0 °F 87% 29.59 in 10.0 mi SW 9.2 mph - 0.19 in   Overcast
9:03 AM 69.8 °F - 66.2 °F 88% 29.59 in 10.0 mi SW 8.1 mph - N/A   Overcast
9:26 AM 71.6 °F - 66.2 °F 83% 29.60 in 10.0 mi SW 8.1 mph - N/A   Mostly Cloudy
9:40 AM 71.6 °F - 68.0 °F 88% 29.61 in 10.0 mi SW 8.1 mph - N/A   Mostly Cloudy
9:53 AM 72.0 °F - 68.0 °F 87% 29.61 in 9.0 mi SW 11.5 mph - N/A   Overcast
10:39 AM 73.4 °F - 69.8 °F 88% 29.63 in 8.0 mi WSW 12.7 mph 19.6 mph N/A   Overcast
10:53 AM 75.0 °F - 68.0 °F 79% 29.63 in 8.0 mi WSW 12.7 mph 21.9 mph N/A   Overcast
11:10 AM 75.2 °F - 68.0 °F 78% 29.62 in 8.0 mi WSW 11.5 mph - N/A   Mostly Cloudy
11:38 AM 77.0 °F - 66.2 °F 69% 29.62 in 10.0 mi WSW 13.8 mph 21.9 mph N/A   Mostly Cloudy
11:53 AM 78.1 °F - 66.9 °F 68% 29.61 in 10.0 mi WSW 13.8 mph 23.0 mph N/A   Mostly Cloudy
12:53 PM 81.0 °F 82.7 °F 64.9 °F 58% 29.62 in 10.0 mi WSW 15.0 mph - N/A   Partly Cloudy
1:53 PM 82.9 °F 83.7 °F 62.1 °F 49% 29.61 in 10.0 mi WSW 12.7 mph 24.2 mph N/A   Scattered Clouds
2:53 PM 84.0 °F 84.4 °F 61.0 °F 46% 29.59 in 10.0 mi West 11.5 mph 20.7 mph N/A   Scattered Clouds
3:53 PM 84.9 °F 84.8 °F 60.1 °F 43% 29.56 in 10.0 mi West 9.2 mph 20.7 mph N/A   Scattered Clouds
4:53 PM 84.9 °F 84.8 °F 60.1 °F 43% 29.57 in 10.0 mi WSW 16.1 mph 21.9 mph N/A   Partly Cloudy
5:53 PM 82.9 °F 81.9 °F 54.0 °F 37% 29.58 in 10.0 mi WSW 19.6 mph 27.6 mph N/A   Partly Cloudy
6:53 PM 81.0 °F - 46.9 °F 30% 29.58 in 10.0 mi West 19.6 mph 26.5 mph N/A   Partly Cloudy
7:53 PM 75.9 °F - 52.0 °F 43% 29.60 in 10.0 mi WSW 13.8 mph - N/A   Partly Cloudy
8:53 PM 72.0 °F - 57.0 °F 59% 29.62 in 10.0 mi WSW 13.8 mph - N/A   Clear
9:53 PM 70.0 °F - 57.0 °F 63% 29.64 in 10.0 mi West 12.7 mph - N/A   Clear
10:53 PM 68.0 °F - 57.9 °F 70% 29.69 in 10.0 mi WNW 17.3 mph 25.3 mph N/A   Scattered Clouds
11:53 PM 64.9 °F - 36.0 °F 34% 29.75 in 10.0 mi NW 23.0 mph 33.4 mph N/A   Clear